Location: Oberwangen
(47.4286°N, 8.9679°E)
Time: 10:44:08
(UTC+00:00)

Cosmos 1816 Rocket - Pass Details

Date: 17 October 2021
Orbit: 952 x 998 km, 82.9° (Epoch: 08 December)

Event Time Altitude Azimuth Distance (km) Brightness Sun altitude
Rises 18:52:54 0° 358° (N) 3,642 7.7 -24.4°
Reaches altitude 10° 18:55:50 10° 11° (N) 2,695 6.8 -24.9°
Enters shadow 18:58:37 22° 34° (NE) 1,989 5.9 -25.4°
